Time,TemperatureF,DewpointF,PressureIn,WindDirection,WindDirectionDegrees,WindSpeedMPH,WindSpeedGustMPH,Humidity,HourlyPrecipIn,Conditions,Clouds,dailyrainin,SoftwareType,DateUTC
2013-01-12 00:01:00,68.9,66.5,29.85,ENE,76,2.0,11.0,92,0.00,,OVC014,0.00,VWS V14.01,2013-01-12 06:01:00,
2013-01-12 00:06:00,68.9,66.2,29.84,SSE,153,4.0,11.0,91,0.00,,OVC014,0.00,VWS V14.01,2013-01-12 06:06:00,
2013-01-12 00:11:00,68.9,66.2,29.84,SSE,159,4.0,11.0,91,0.00,,OVC012,0.00,VWS V14.01,2013-01-12 06:11:00,
2013-01-12 00:16:00,68.9,66.2,29.84,South,186,2.0,7.0,91,0.00,,OVC012,0.00,VWS V14.01,2013-01-12 06:16:00,
2013-01-12 00:21:00,69.1,66.4,29.84,SSE,159,0.0,7.0,91,0.00,,OVC012,0.00,VWS V14.01,2013-01-12 06:21:00,
2013-01-12 00:26:00,69.1,66.4,29.84,SE,138,6.0,9.0,91,0.00,,OVC012,0.00,VWS V14.01,2013-01-12 06:26:00,
2013-01-12 00:31:00,69.1,66.1,29.84,SE,136,0.0,12.0,90,0.00,,OVC012,0.00,VWS V14.01,2013-01-12 06:31:00,
2013-01-12 00:36:00,69.1,66.1,29.85,SSW,192,1.0,9.0,90,0.00,,OVC012,0.00,VWS V14.01,2013-01-12 06:36:00,
2013-01-12 00:41:00,69.1,66.1,29.85,SSW,196,4.0,9.0,90,0.00,,OVC012,0.00,VWS V14.01,2013-01-12 06:41:00,
2013-01-12 00:46:00,69.3,66.2,29.85,SSW,195,0.0,4.0,90,0.00,,OVC012,0.00,VWS V14.01,2013-01-12 06:46:00,
2013-01-12 00:51:00,69.3,66.2,29.85,South,175,1.0,7.0,90,0.00,,OVC012,0.00,VWS V14.01,2013-01-12 06:51:00,
2013-01-12 00:56:00,69.4,66.0,29.85,SE,140,0.0,5.0,89,0.00,,OVC007,0.00,VWS V14.01,2013-01-12 06:56:00,
2013-01-12 01:01:00,69.4,66.0,29.85,South,169,9.0,9.0,89,0.00,,OVC007,0.00,VWS V14.01,2013-01-12 07:01:00,
2013-01-12 01:06:00,69.6,66.2,29.84,SSW,204,0.0,7.0,89,0.00,,OVC009,0.00,VWS V14.01,2013-01-12 07:06:00,
2013-01-12 01:11:00,69.6,66.2,29.84,SE,140,3.0,10.0,89,0.00,,OVC009,0.00,VWS V14.01,2013-01-12 07:11:00,
2013-01-12 01:16:00,69.8,66.1,29.84,South,185,5.0,10.0,88,0.00,,OVC009,0.00,VWS V14.01,2013-01-12 07:16:00,
2013-01-12 01:21:00,69.8,66.1,29.84,SSW,194,2.0,10.0,88,0.00,,OVC009,0.00,VWS V14.01,2013-01-12 07:21:00,
2013-01-12 01:26:00,69.8,66.1,29.84,SSE,168,2.0,6.0,88,0.00,,OVC011,0.00,VWS V14.01,2013-01-12 07:26:00,
2013-01-12 01:31:00,69.8,66.1,29.84,SSW,209,1.0,6.0,88,0.00,,OVC011,0.00,VWS V14.01,2013-01-12 07:31:00,
2013-01-12 01:36:00,69.9,66.2,29.84,SSE,150,1.0,3.0,88,0.00,,OVC011,0.00,VWS V14.01,2013-01-12 07:36:00,
2013-01-12 01:41:00,69.9,66.2,29.84,SSE,159,0.0,3.0,88,0.00,,OVC011,0.00,VWS V14.01,2013-01-12 07:41:00,
2013-01-12 01:46:00,69.9,66.2,29.84,SSE,168,2.0,4.0,88,0.00,,OVC011,0.00,VWS V14.01,2013-01-12 07:46:00,
2013-01-12 01:51:00,69.9,66.2,29.84,South,184,0.0,4.0,88,0.00,,OVC011,0.00,VWS V14.01,2013-01-12 07:51:00,
2013-01-12 01:56:00,69.9,66.2,29.84,South,175,0.0,9.0,88,0.00,,OVC011,0.00,VWS V14.01,2013-01-12 07:56:00,
2013-01-12 02:00:00,69.9,66.2,29.84,SE,142,0.0,9.0,88,0.00,,OVC011,0.00,VWS V14.01,2013-01-12 08:00:00,
2013-01-12 02:05:00,69.9,66.2,29.83,South,173,2.0,6.0,88,0.00,,OVC011,0.00,VWS V14.01,2013-01-12 08:05:00,
2013-01-12 02:10:00,70.1,66.4,29.83,South,176,3.0,9.0,88,0.00,,OVC011,0.00,VWS V14.01,2013-01-12 08:10:00,
2013-01-12 02:15:00,70.1,66.4,29.83,SSE,161,0.0,0.0,88,0.00,,OVC011,0.00,VWS V14.01,2013-01-12 08:15:00,
2013-01-12 02:20:00,70.1,66.7,29.84,SSE,167,4.0,9.0,89,0.00,,OVC011,0.00,VWS V14.01,2013-01-12 08:20:00,
2013-01-12 02:25:00,70.1,66.4,29.84,South,182,2.0,6.0,88,0.00,,OVC011,0.00,VWS V14.01,2013-01-12 08:25:00,
2013-01-12 02:30:00,70.3,66.6,29.84,SE,138,4.0,10.0,88,0.00,,OVC011,0.00,VWS V14.01,2013-01-12 08:30:00,
2013-01-12 02:35:00,70.3,66.6,29.84,South,176,0.0,0.0,88,0.00,,OVC011,0.00,VWS V14.01,2013-01-12 08:35:00,
2013-01-12 02:40:00,70.3,66.6,29.84,South,170,0.0,8.0,88,0.00,,OVC011,0.00,VWS V14.01,2013-01-12 08:40:00,
2013-01-12 02:45:00,70.3,66.6,29.84,South,174,0.0,5.0,88,0.00,,OVC011,0.00,VWS V14.01,2013-01-12 08:45:00,
2013-01-12 02:50:00,70.3,66.6,29.84,SSE,157,0.0,5.0,88,0.00,,OVC011,0.00,VWS V14.01,2013-01-12 08:50:00,
2013-01-12 02:55:00,70.3,66.6,29.84,South,182,5.0,6.0,88,0.00,,OVC011,0.00,VWS V14.01,2013-01-12 08:55:00,
2013-01-12 03:00:00,70.3,66.6,29.84,SSE,163,0.0,6.0,88,0.00,,OVC011,0.00,VWS V14.01,2013-01-12 09:00:00,
2013-01-12 03:05:00,70.4,66.7,29.82,SSE,159,0.0,5.0,88,0.00,,OVC011,0.00,VWS V14.01,2013-01-12 09:05:00,
2013-01-12 03:10:00,70.4,66.7,29.82,South,172,5.0,7.0,88,0.00,,OVC011,0.00,VWS V14.01,2013-01-12 09:10:00,
2013-01-12 03:15:00,70.4,66.7,29.82,SE,132,6.0,6.0,88,0.00,,OVC011,0.00,VWS V14.01,2013-01-12 09:15:00,
2013-01-12 03:20:00,70.4,66.7,29.81,SE,141,4.0,6.0,88,0.00,,OVC011,0.00,VWS V14.01,2013-01-12 09:20:00,
2013-01-12 03:25:00,70.4,66.7,29.81,South,171,0.0,0.0,88,0.00,,OVC011,0.00,VWS V14.01,2013-01-12 09:25:00,
2013-01-12 03:30:00,70.4,66.7,29.81,South,187,0.0,4.0,88,0.00,,OVC011,0.00,VWS V14.01,2013-01-12 09:30:00,
2013-01-12 03:35:00,70.4,66.7,29.81,SE,144,0.0,4.0,88,0.00,,OVC011,0.00,VWS V14.01,2013-01-12 09:35:00,
2013-01-12 03:40:00,70.4,66.7,29.81,South,173,1.0,10.0,88,0.00,,OVC011,0.00,VWS V14.01,2013-01-12 09:40:00,
2013-01-12 03:45:00,70.6,66.9,29.81,South,173,6.0,10.0,88,0.00,,OVC011,0.00,VWS V14.01,2013-01-12 09:45:00,
2013-01-12 03:50:00,70.6,66.9,29.80,South,188,4.0,10.0,88,0.00,,OVC011,0.00,VWS V14.01,2013-01-12 09:50:00,
2013-01-12 03:55:00,70.6,66.9,29.80,South,180,2.0,11.0,88,0.00,,OVC013,0.00,VWS V14.01,2013-01-12 09:55:00,
2013-01-12 04:00:00,70.8,67.1,29.80,South,172,1.0,11.0,88,0.00,,OVC013,0.00,VWS V14.01,2013-01-12 10:00:00,
2013-01-12 04:05:00,70.8,67.1,29.80,South,169,0.0,7.0,88,0.00,,OVC013,0.00,VWS V14.01,2013-01-12 10:05:00,
2013-01-12 04:10:00,70.8,67.1,29.80,SSE,161,0.0,7.0,88,0.00,,OVC013,0.00,VWS V14.01,2013-01-12 10:10:00,
2013-01-12 04:15:00,70.8,67.1,29.80,SSE,161,5.0,5.0,88,0.00,,OVC013,0.00,VWS V14.01,2013-01-12 10:15:00,
2013-01-12 04:20:00,70.8,67.1,29.79,SE,131,0.0,7.0,88,0.00,,OVC013,0.00,VWS V14.01,2013-01-12 10:20:00,
2013-01-12 04:25:00,70.8,66.7,29.79,South,181,0.0,6.0,87,0.00,,OVC013,0.00,VWS V14.01,2013-01-12 10:25:00,
2013-01-12 04:30:00,70.8,66.7,29.79,SSE,155,3.0,6.0,87,0.00,,OVC013,0.00,VWS V14.01,2013-01-12 10:30:00,
2013-01-12 04:35:00,70.8,66.7,29.78,South,173,0.0,6.0,87,0.00,,OVC013,0.00,VWS V14.01,2013-01-12 10:35:00,
2013-01-12 04:40:00,70.8,66.7,29.78,South,190,3.0,6.0,87,0.00,,OVC013,0.00,VWS V14.01,2013-01-12 10:40:00,
2013-01-12 04:45:00,70.8,66.7,29.78,SSE,153,0.0,0.0,87,0.00,,OVC013,0.00,VWS V14.01,2013-01-12 10:45:00,
2013-01-12 04:50:00,70.8,66.7,29.78,South,182,2.0,5.0,87,0.00,,OVC013,0.00,VWS V14.01,2013-01-12 10:50:00,
2013-01-12 04:55:00,70.8,66.7,29.78,South,179,2.0,5.0,87,0.00,,-RA,0.00,VWS V14.01,2013-01-12 10:55:00,
2013-01-12 05:00:00,70.9,66.8,29.78,SSE,163,4.0,8.0,87,0.00,,-RA,0.00,VWS V14.01,2013-01-12 11:00:00,
2013-01-12 05:05:00,70.9,66.8,29.78,SSE,165,0.0,4.0,87,0.00,,-RA,0.00,VWS V14.01,2013-01-12 11:05:00,
2013-01-12 05:10:00,70.9,66.8,29.78,SSW,198,5.0,10.0,87,0.00,,-RA,0.00,VWS V14.01,2013-01-12 11:10:00,
2013-01-12 05:15:00,70.9,66.8,29.78,South,180,4.0,9.0,87,0.00,,-RA,0.00,VWS V14.01,2013-01-12 11:15:00,
2013-01-12 05:20:00,70.8,66.7,29.78,South,175,0.0,9.0,87,0.00,,-RA,0.00,VWS V14.01,2013-01-12 11:20:00,
2013-01-12 05:25:00,70.8,66.7,29.78,SSE,159,0.0,7.0,87,0.00,,-RA,0.00,VWS V14.01,2013-01-12 11:25:00,
2013-01-12 05:30:00,70.8,66.7,29.78,SSW,213,4.0,9.0,87,0.00,,-RA,0.00,VWS V14.01,2013-01-12 11:30:00,
2013-01-12 05:35:00,70.8,66.7,29.77,ESE,117,0.0,10.0,87,0.00,,-RA,0.00,VWS V14.01,2013-01-12 11:35:00,
2013-01-12 05:40:00,70.8,66.7,29.77,SSE,152,0.0,10.0,87,0.00,,-RA,0.00,VWS V14.01,2013-01-12 11:40:00,
2013-01-12 05:45:00,70.8,66.7,29.77,South,172,0.0,6.0,87,0.00,,-RA,0.00,VWS V14.01,2013-01-12 11:45:00,
2013-01-12 05:50:00,70.8,66.7,29.77,SSE,168,7.0,10.0,87,0.00,,,0.00,VWS V14.01,2013-01-12 11:50:00,
2013-01-12 05:55:00,70.8,66.7,29.77,South,175,3.0,5.0,87,0.00,,,0.00,VWS V14.01,2013-01-12 11:55:00,
2013-01-12 06:00:00,70.8,66.7,29.77,South,190,0.0,6.0,87,0.00,,,0.00,VWS V14.01,2013-01-12 12:00:00,
2013-01-12 06:05:00,70.8,66.7,29.77,South,169,0.0,5.0,87,0.00,,,0.00,VWS V14.01,2013-01-12 12:05:00,
2013-01-12 06:10:00,70.8,66.7,29.77,SSE,157,0.0,5.0,87,0.00,,,0.00,VWS V14.01,2013-01-12 12:10:00,
2013-01-12 06:15:00,70.8,66.7,29.77,SSW,205,0.0,5.0,87,0.00,,,0.00,VWS V14.01,2013-01-12 12:15:00,
2013-01-12 06:20:00,70.8,66.7,29.78,SSE,165,0.0,5.0,87,0.00,,,0.00,VWS V14.01,2013-01-12 12:20:00,
2013-01-12 06:25:00,70.9,66.8,29.78,SSE,158,2.0,6.0,87,0.00,,,0.00,VWS V14.01,2013-01-12 12:25:00,
2013-01-12 06:30:00,70.9,66.8,29.78,East,84,3.0,7.0,87,0.00,,,0.00,VWS V14.01,2013-01-12 12:30:00,
2013-01-12 06:35:00,70.9,66.8,29.77,SSE,167,3.0,9.0,87,0.00,,,0.00,VWS V14.01,2013-01-12 12:35:00,
2013-01-12 06:40:00,70.9,66.8,29.77,South,175,9.0,11.0,87,0.00,,,0.00,VWS V14.01,2013-01-12 12:40:00,
2013-01-12 06:45:00,70.9,66.8,29.77,SE,144,1.0,8.0,87,0.00,,,0.00,VWS V14.01,2013-01-12 12:45:00,
2013-01-12 06:50:00,70.9,66.8,29.77,South,172,8.0,9.0,87,0.00,,,0.00,VWS V14.01,2013-01-12 12:50:00,
2013-01-12 06:55:00,71.1,67.0,29.77,South,180,2.0,8.0,87,0.00,,,0.00,VWS V14.01,2013-01-12 12:55:00,
2013-01-12 07:00:00,71.1,67.0,29.77,SSE,159,4.0,10.0,87,0.00,,OVC029,0.00,VWS V14.01,2013-01-12 13:00:00,
2013-01-12 07:05:00,71.1,66.7,29.77,SSE,161,0.0,7.0,86,0.00,,OVC029,0.00,VWS V14.01,2013-01-12 13:05:00,
2013-01-12 07:10:00,71.1,66.7,29.77,South,173,0.0,11.0,86,0.00,,OVC029,0.00,VWS V14.01,2013-01-12 13:10:00,
2013-01-12 07:15:00,71.1,66.7,29.77,South,169,0.0,7.0,86,0.00,,OVC029,0.00,VWS V14.01,2013-01-12 13:15:00,
2013-01-12 07:20:00,71.1,67.0,29.77,SSE,157,7.0,7.0,87,0.00,,OVC029,0.00,VWS V14.01,2013-01-12 13:20:00,
2013-01-12 07:25:00,71.1,67.0,29.77,SSE,153,4.0,10.0,87,0.00,,OVC029,0.00,VWS V14.01,2013-01-12 13:25:00,
2013-01-12 07:30:00,71.1,67.0,29.77,SSE,163,3.0,11.0,87,0.00,,-RA,0.00,VWS V14.01,2013-01-12 13:30:00,
2013-01-12 07:35:00,71.1,67.0,29.76,SSE,161,1.0,9.0,87,0.00,,-RA,0.00,VWS V14.01,2013-01-12 13:35:00,
2013-01-12 07:40:00,71.1,66.7,29.76,South,178,6.0,13.0,86,0.00,,-RA,0.00,VWS V14.01,2013-01-12 13:40:00,
2013-01-12 07:45:00,71.3,66.9,29.76,SSE,160,1.0,6.0,86,0.00,,-RA,0.00,VWS V14.01,2013-01-12 13:45:00,
2013-01-12 07:50:00,71.3,66.9,29.77,South,173,6.0,10.0,86,0.00,,-RA,0.00,VWS V14.01,2013-01-12 13:50:00,
2013-01-12 07:55:00,71.5,67.1,29.77,South,175,0.0,7.0,86,0.00,,-RA,0.00,VWS V14.01,2013-01-12 13:55:00,
2013-01-12 08:00:00,71.5,67.1,29.77,SSE,151,0.0,10.0,86,0.00,,,0.00,VWS V14.01,2013-01-12 14:00:00,
2013-01-12 08:05:00,71.5,67.1,29.79,SSE,154,3.0,10.0,86,0.00,,,0.00,VWS V14.01,2013-01-12 14:05:00,
2013-01-12 08:10:00,71.6,66.9,29.79,SSE,165,4.0,10.0,85,0.00,,,0.00,VWS V14.01,2013-01-12 14:10:00,
2013-01-12 08:15:00,71.6,66.9,29.79,SSW,196,4.0,6.0,85,0.00,,,0.00,VWS V14.01,2013-01-12 14:15:00,
2013-01-12 08:20:00,71.6,66.9,29.78,South,176,1.0,10.0,85,0.00,,,0.00,VWS V14.01,2013-01-12 14:20:00,
2013-01-12 08:25:00,71.6,66.9,29.78,SSE,167,10.0,10.0,85,0.00,,,0.00,VWS V14.01,2013-01-12 14:25:00,
2013-01-12 08:30:00,71.6,66.9,29.78,SE,136,5.0,10.0,85,0.00,,,0.00,VWS V14.01,2013-01-12 14:30:00,
2013-01-12 08:35:00,71.6,66.9,29.79,SSE,159,0.0,8.0,85,0.00,,,0.00,VWS V14.01,2013-01-12 14:35:00,
2013-01-12 08:40:00,71.6,66.9,29.79,South,177,0.0,8.0,85,0.00,,,0.00,VWS V14.01,2013-01-12 14:40:00,
2013-01-12 08:45:00,71.6,66.9,29.79,SE,137,0.0,6.0,85,0.00,,,0.00,VWS V14.01,2013-01-12 14:45:00,
2013-01-12 08:50:00,71.6,66.9,29.80,South,182,0.0,10.0,85,0.00,,,0.00,VWS V14.01,2013-01-12 14:50:00,
2013-01-12 08:55:00,71.6,66.9,29.80,SSE,161,0.0,5.0,85,0.00,,,0.00,VWS V14.01,2013-01-12 14:55:00,
2013-01-12 09:00:00,71.6,66.9,29.80,South,184,0.0,10.0,85,0.00,,,0.00,VWS V14.01,2013-01-12 15:00:00,
2013-01-12 09:05:00,71.8,67.1,29.80,SE,126,2.0,9.0,85,0.00,,,0.00,VWS V14.01,2013-01-12 15:05:00,
2013-01-12 09:10:00,71.8,67.1,29.80,SE,129,0.0,9.0,85,0.00,,,0.00,VWS V14.01,2013-01-12 15:10:00,
2013-01-12 09:15:00,71.8,67.1,29.80,SSE,147,4.0,11.0,85,0.00,,,0.00,VWS V14.01,2013-01-12 15:15:00,
2013-01-12 09:20:00,71.8,67.1,29.79,SE,136,2.0,11.0,85,0.00,,,0.00,VWS V14.01,2013-01-12 15:20:00,
2013-01-12 09:25:00,71.8,67.1,29.79,South,179,3.0,3.0,85,0.00,,,0.00,VWS V14.01,2013-01-12 15:25:00,
2013-01-12 09:30:00,71.8,67.1,29.79,SSE,148,9.0,9.0,85,0.00,,,0.00,VWS V14.01,2013-01-12 15:30:00,
2013-01-12 09:35:00,71.8,66.7,29.79,SE,129,0.0,6.0,84,0.00,,,0.00,VWS V14.01,2013-01-12 15:35:00,
2013-01-12 09:40:00,72.0,66.9,29.79,SE,141,1.0,11.0,84,0.00,,,0.00,VWS V14.01,2013-01-12 15:40:00,
2013-01-12 09:45:00,72.0,66.9,29.79,South,183,0.0,5.0,84,0.00,,,0.00,VWS V14.01,2013-01-12 15:45:00,
2013-01-12 09:50:00,72.0,66.9,29.80,SSE,167,5.0,9.0,84,0.00,,,0.00,VWS V14.01,2013-01-12 15:50:00,
2013-01-12 09:55:00,72.1,67.0,29.80,SSE,153,9.0,10.0,84,0.00,,,0.00,VWS V14.01,2013-01-12 15:55:00,
2013-01-12 10:00:00,72.1,67.0,29.80,SE,143,2.0,11.0,84,0.00,,OVC031,0.00,VWS V14.01,2013-01-12 16:00:00,
2013-01-12 10:05:00,72.3,67.2,29.79,SSW,194,12.0,12.0,84,0.00,,OVC031,0.00,VWS V14.01,2013-01-12 16:05:00,
2013-01-12 10:10:00,72.5,67.1,29.79,SSW,207,6.0,13.0,83,0.00,,OVC031,0.00,VWS V14.01,2013-01-12 16:10:00,
2013-01-12 10:15:00,72.7,67.2,29.79,SSE,155,0.0,8.0,83,0.00,,OVC031,0.00,VWS V14.01,2013-01-12 16:15:00,
2013-01-12 10:20:00,72.7,67.2,29.80,SSE,155,0.0,10.0,83,0.00,,OVC031,0.00,VWS V14.01,2013-01-12 16:20:00,
2013-01-12 10:25:00,72.8,67.3,29.80,SSE,164,0.0,9.0,83,0.00,,OVC031,0.00,VWS V14.01,2013-01-12 16:25:00,
2013-01-12 10:30:00,72.8,67.3,29.80,South,190,3.0,11.0,83,0.00,,OVC031,0.00,VWS V14.01,2013-01-12 16:30:00,
2013-01-12 10:35:00,72.8,67.3,29.79,South,184,2.0,9.0,83,0.00,,OVC031,0.00,VWS V14.01,2013-01-12 16:35:00,
2013-01-12 10:40:00,72.8,67.3,29.79,South,180,0.0,9.0,83,0.00,,OVC031,0.00,VWS V14.01,2013-01-12 16:40:00,
2013-01-12 10:45:00,72.8,67.3,29.79,South,169,5.0,10.0,83,0.00,,OVC031,0.00,VWS V14.01,2013-01-12 16:45:00,
2013-01-12 10:50:00,72.7,67.2,29.78,South,173,3.0,11.0,83,0.00,,OVC031,0.00,VWS V14.01,2013-01-12 16:50:00,
2013-01-12 10:55:00,72.7,67.2,29.78,South,188,4.0,10.0,83,0.00,,OVC031,0.00,VWS V14.01,2013-01-12 16:55:00,
2013-01-12 11:00:00,72.7,67.2,29.78,SSE,159,3.0,10.0,83,0.00,,OVC033,0.00,VWS V14.01,2013-01-12 17:00:00,
2013-01-12 11:05:00,72.8,67.3,29.76,SSE,165,5.0,13.0,83,0.00,,OVC033,0.00,VWS V14.01,2013-01-12 17:05:00,
2013-01-12 11:10:00,72.8,67.0,29.76,SE,145,4.0,17.0,82,0.00,,OVC033,0.00,VWS V14.01,2013-01-12 17:10:00,
2013-01-12 11:15:00,73.0,67.2,29.76,South,182,5.0,18.0,82,0.00,,OVC033,0.00,VWS V14.01,2013-01-12 17:15:00,
2013-01-12 11:20:00,73.0,67.2,29.75,SSE,153,5.0,18.0,82,0.00,,OVC033,0.00,VWS V14.01,2013-01-12 17:20:00,
2013-01-12 11:25:00,73.2,67.0,29.75,SE,128,3.0,14.0,81,0.00,,OVC033,0.00,VWS V14.01,2013-01-12 17:25:00,
2013-01-12 11:30:00,73.2,67.0,29.75,South,175,3.0,14.0,81,0.00,,OVC033,0.00,VWS V14.01,2013-01-12 17:30:00,
2013-01-12 11:35:00,73.3,66.8,29.76,South,183,2.0,13.0,80,0.00,,OVC033,0.00,VWS V14.01,2013-01-12 17:35:00,
2013-01-12 11:40:00,73.3,66.8,29.76,ESE,123,2.0,13.0,80,0.00,,OVC033,0.00,VWS V14.01,2013-01-12 17:40:00,
2013-01-12 11:45:00,73.3,66.8,29.76,SE,143,2.0,17.0,80,0.00,,OVC033,0.00,VWS V14.01,2013-01-12 17:45:00,
2013-01-12 11:50:00,73.3,66.8,29.76,South,191,10.0,17.0,80,0.00,,OVC033,0.00,VWS V14.01,2013-01-12 17:50:00,
2013-01-12 11:55:00,73.3,66.8,29.76,SSE,167,6.0,10.0,80,0.00,,OVC033,0.00,VWS V14.01,2013-01-12 17:55:00,
2013-01-12 12:00:00,73.3,66.8,29.76,SSW,200,12.0,12.0,80,0.00,,OVC023,0.00,VWS V14.01,2013-01-12 18:00:00,
2013-01-12 12:05:00,73.3,66.8,29.75,SSE,161,2.0,5.0,80,0.00,,OVC023,0.00,VWS V14.01,2013-01-12 18:05:00,
2013-01-12 12:10:00,73.5,66.6,29.75,SSW,207,5.0,10.0,79,0.00,,OVC023,0.00,VWS V14.01,2013-01-12 18:10:00,
2013-01-12 12:15:00,73.5,66.6,29.75,SSE,153,4.0,10.0,79,0.00,,OVC023,0.00,VWS V14.01,2013-01-12 18:15:00,
2013-01-12 12:20:00,73.5,66.6,29.74,SSE,152,10.0,13.0,79,0.00,,OVC023,0.00,VWS V14.01,2013-01-12 18:20:00,
2013-01-12 12:25:00,73.7,66.4,29.74,SSE,149,9.0,11.0,78,0.00,,OVC023,0.00,VWS V14.01,2013-01-12 18:25:00,
2013-01-12 12:30:00,73.9,66.6,29.74,SSE,163,2.0,11.0,78,0.00,,OVC023,0.00,VWS V14.01,2013-01-12 18:30:00,
2013-01-12 12:35:00,73.9,66.6,29.71,SSE,167,6.0,13.0,78,0.00,,OVC023,0.00,VWS V14.01,2013-01-12 18:35:00,
2013-01-12 12:40:00,73.9,66.6,29.71,SSE,165,4.0,13.0,78,0.00,,OVC023,0.00,VWS V14.01,2013-01-12 18:40:00,
2013-01-12 12:45:00,73.7,66.4,29.71,SSW,201,6.0,10.0,78,0.00,,OVC023,0.00,VWS V14.01,2013-01-12 18:45:00,
2013-01-12 12:50:00,73.7,66.4,29.74,SSW,196,4.0,13.0,78,0.00,,OVC023,0.00,VWS V14.01,2013-01-12 18:50:00,
2013-01-12 12:55:00,73.7,66.4,29.74,South,182,8.0,9.0,78,0.00,,OVC023,0.00,VWS V14.01,2013-01-12 18:55:00,
2013-01-12 13:00:00,73.5,66.2,29.74,SW,217,6.0,13.0,78,0.00,,OVC031,0.00,VWS V14.01,2013-01-12 19:00:00,
2013-01-12 13:05:00,73.7,66.4,29.70,SSW,200,4.0,10.0,78,0.00,,OVC031,0.00,VWS V14.01,2013-01-12 19:05:00,
2013-01-12 13:10:00,73.7,66.4,29.70,South,191,3.0,10.0,78,0.00,,OVC031,0.00,VWS V14.01,2013-01-12 19:10:00,
2013-01-12 13:15:00,73.7,66.4,29.70,SSW,197,11.0,11.0,78,0.00,,OVC031,0.00,VWS V14.01,2013-01-12 19:15:00,
2013-01-12 13:20:00,73.5,66.2,29.74,SW,234,6.0,12.0,78,0.00,,OVC031,0.00,VWS V14.01,2013-01-12 19:20:00,
2013-01-12 13:25:00,73.5,66.2,29.74,South,181,1.0,6.0,78,0.00,,OVC031,0.00,VWS V14.01,2013-01-12 19:25:00,
2013-01-12 13:30:00,73.3,66.4,29.74,SSW,205,6.0,11.0,79,0.00,,OVC031,0.00,VWS V14.01,2013-01-12 19:30:00,
2013-01-12 13:35:00,73.3,66.4,29.72,South,178,0.0,1.0,79,0.00,,OVC031,0.00,VWS V14.01,2013-01-12 19:35:00,
2013-01-12 13:40:00,73.5,66.6,29.72,South,174,0.0,3.0,79,0.00,,OVC031,0.00,VWS V14.01,2013-01-12 19:40:00,
2013-01-12 13:45:00,73.5,66.2,29.72,South,175,1.0,3.0,78,0.00,,OVC031,0.00,VWS V14.01,2013-01-12 19:45:00,
2013-01-12 13:50:00,73.7,66.4,29.71,SSE,168,1.0,6.0,78,0.00,,OVC031,0.00,VWS V14.01,2013-01-12 19:50:00,
2013-01-12 13:55:00,73.7,66.4,29.71,South,181,0.0,2.0,78,0.00,,OVC031,0.00,VWS V14.01,2013-01-12 19:55:00,
2013-01-12 14:00:00,73.9,66.6,29.71,SE,130,2.0,6.0,78,0.00,,OVC048,0.00,VWS V14.01,2013-01-12 20:00:00,
2013-01-12 14:05:00,74.0,66.7,29.70,South,175,2.0,5.0,78,0.00,,OVC048,0.00,VWS V14.01,2013-01-12 20:05:00,
2013-01-12 14:10:00,74.2,66.5,29.70,SE,130,3.0,5.0,77,0.00,,FEW019,0.00,VWS V14.01,2013-01-12 20:10:00,
2013-01-12 14:15:00,74.4,66.7,29.70,South,173,3.0,6.0,77,0.00,,FEW019,0.00,VWS V14.01,2013-01-12 20:15:00,
2013-01-12 14:20:00,74.6,66.5,29.69,South,170,1.0,6.0,76,0.00,,FEW019,0.00,VWS V14.01,2013-01-12 20:20:00,
2013-01-12 14:25:00,74.6,66.5,29.69,SSE,167,1.0,6.0,76,0.00,,FEW019,0.00,VWS V14.01,2013-01-12 20:25:00,
2013-01-12 14:30:00,74.7,66.6,29.69,SSE,158,0.0,6.0,76,0.00,,FEW019,0.00,VWS V14.01,2013-01-12 20:30:00,
2013-01-12 14:35:00,74.7,66.3,29.70,SSE,153,4.0,13.0,75,0.00,,FEW019,0.00,VWS V14.01,2013-01-12 20:35:00,
2013-01-12 14:40:00,74.7,66.3,29.70,South,188,7.0,13.0,75,0.00,,FEW019,0.00,VWS V14.01,2013-01-12 20:40:00,
2013-01-12 14:45:00,74.6,66.2,29.70,South,185,1.0,11.0,75,0.00,,FEW019,0.00,VWS V14.01,2013-01-12 20:45:00,
2013-01-12 14:50:00,74.7,66.3,29.69,South,170,0.0,11.0,75,0.00,,FEW019,0.00,VWS V14.01,2013-01-12 20:50:00,
2013-01-12 14:55:00,74.7,66.3,29.69,South,188,3.0,5.0,75,0.00,,FEW019,0.00,VWS V14.01,2013-01-12 20:55:00,
2013-01-12 15:00:00,74.7,66.3,29.69,South,170,3.0,7.0,75,0.00,,FEW019,0.00,VWS V14.01,2013-01-12 21:00:00,
2013-01-12 15:05:00,74.9,66.4,29.68,South,178,3.0,9.0,75,0.00,,FEW019,0.00,VWS V14.01,2013-01-12 21:05:00,
2013-01-12 15:10:00,74.9,66.4,29.68,South,189,6.0,9.0,75,0.00,,FEW019,0.00,VWS V14.01,2013-01-12 21:10:00,
2013-01-12 15:15:00,74.9,66.1,29.68,SSW,202,3.0,7.0,74,0.00,,FEW019,0.00,VWS V14.01,2013-01-12 21:15:00,
2013-01-12 15:20:00,75.1,66.2,29.69,SSE,165,2.0,7.0,74,0.00,,FEW019,0.00,VWS V14.01,2013-01-12 21:20:00,
2013-01-12 15:25:00,75.1,66.2,29.69,SSE,163,0.0,1.0,74,0.00,,FEW019,0.00,VWS V14.01,2013-01-12 21:25:00,
2013-01-12 15:30:00,75.3,66.4,29.69,South,171,2.0,3.0,74,0.00,,FEW019,0.00,VWS V14.01,2013-01-12 21:30:00,
2013-01-12 15:35:00,75.3,66.4,29.67,SSE,149,0.0,4.0,74,0.00,,FEW019,0.00,VWS V14.01,2013-01-12 21:35:00,
2013-01-12 15:40:00,75.3,66.4,29.67,SSW,192,0.0,6.0,74,0.00,,FEW019,0.00,VWS V14.01,2013-01-12 21:40:00,
2013-01-12 15:45:00,75.3,66.4,29.67,SSE,154,0.0,0.0,74,0.00,,FEW019,0.00,VWS V14.01,2013-01-12 21:45:00,
2013-01-12 15:50:00,75.4,66.5,29.68,SSE,154,0.0,0.0,74,0.00,,FEW019,0.00,VWS V14.01,2013-01-12 21:50:00,
2013-01-12 15:55:00,75.4,66.5,29.68,South,174,4.0,6.0,74,0.00,,FEW019,0.00,VWS V14.01,2013-01-12 21:55:00,
2013-01-12 16:00:00,75.4,66.5,29.68,South,169,0.0,7.0,74,0.00,,SCT022,0.00,VWS V14.01,2013-01-12 22:00:00,
2013-01-12 16:05:00,75.4,66.5,29.68,SE,138,2.0,5.0,74,0.00,,SCT022,0.00,VWS V14.01,2013-01-12 22:05:00,
2013-01-12 16:10:00,75.4,66.5,29.68,SSE,148,0.0,5.0,74,0.00,,SCT022,0.00,VWS V14.01,2013-01-12 22:10:00,
2013-01-12 16:15:00,75.4,66.5,29.68,SSE,151,0.0,0.0,74,0.00,,SCT022,0.00,VWS V14.01,2013-01-12 22:15:00,
2013-01-12 16:20:00,75.4,66.5,29.68,South,189,0.0,0.0,74,0.00,,SCT022,0.00,VWS V14.01,2013-01-12 22:20:00,
2013-01-12 16:25:00,75.3,66.4,29.68,South,189,0.0,4.0,74,0.00,,SCT022,0.00,VWS V14.01,2013-01-12 22:25:00,
2013-01-12 16:30:00,75.3,66.8,29.68,South,189,0.0,4.0,75,0.00,,SCT022,0.00,VWS V14.01,2013-01-12 22:30:00,
2013-01-12 16:35:00,75.1,66.6,29.69,South,189,0.0,4.0,75,0.00,,SCT022,0.00,VWS V14.01,2013-01-12 22:35:00,
2013-01-12 16:40:00,75.1,66.6,29.69,South,189,0.0,4.0,75,0.00,,SCT022,0.00,VWS V14.01,2013-01-12 22:40:00,
2013-01-12 16:45:00,75.1,66.6,29.69,South,189,0.0,0.0,75,0.00,,SCT022,0.00,VWS V14.01,2013-01-12 22:45:00,
2013-01-12 16:50:00,75.1,66.6,29.68,South,189,0.0,0.0,75,0.00,,SCT022,0.00,VWS V14.01,2013-01-12 22:50:00,
2013-01-12 16:55:00,75.1,66.6,29.68,South,189,0.0,0.0,75,0.00,,SCT022,0.00,VWS V14.01,2013-01-12 22:55:00,
2013-01-12 17:00:00,74.9,66.8,29.68,South,189,0.0,0.0,76,0.00,,CLR,0.00,VWS V14.01,2013-01-12 23:00:00,
2013-01-12 17:05:00,74.7,66.6,29.68,South,189,0.0,0.0,76,0.00,,CLR,0.00,VWS V14.01,2013-01-12 23:05:00,
2013-01-12 17:10:00,74.7,66.6,29.68,South,189,0.0,0.0,76,0.00,,CLR,0.00,VWS V14.01,2013-01-12 23:10:00,
2013-01-12 17:15:00,74.7,66.6,29.68,South,189,0.0,0.0,76,0.00,,CLR,0.00,VWS V14.01,2013-01-12 23:15:00,
2013-01-12 17:20:00,74.6,66.9,29.69,South,189,0.0,0.0,77,0.00,,CLR,0.00,VWS V14.01,2013-01-12 23:20:00,
2013-01-12 17:25:00,74.6,66.9,29.69,South,189,0.0,0.0,77,0.00,,CLR,0.00,VWS V14.01,2013-01-12 23:25:00,
2013-01-12 17:30:00,74.4,66.7,29.69,South,189,0.0,0.0,77,0.00,,CLR,0.00,VWS V14.01,2013-01-12 23:30:00,
2013-01-12 17:35:00,74.2,66.9,29.69,South,189,0.0,0.0,78,0.00,,BKN026,0.00,VWS V14.01,2013-01-12 23:35:00,
2013-01-12 17:40:00,74.0,66.7,29.69,South,189,0.0,0.0,78,0.00,,BKN026,0.00,VWS V14.01,2013-01-12 23:40:00,
2013-01-12 17:45:00,73.9,67.0,29.69,South,189,0.0,0.0,79,0.00,,BKN026,0.00,VWS V14.01,2013-01-12 23:45:00,
2013-01-12 17:50:00,73.7,66.8,29.70,South,189,0.0,0.0,79,0.00,,BKN026,0.00,VWS V14.01,2013-01-12 23:50:00,
2013-01-12 17:55:00,73.5,66.6,29.70,South,189,0.0,0.0,79,0.00,,BKN026,0.00,VWS V14.01,2013-01-12 23:55:00,
2013-01-12 18:00:00,73.5,66.6,29.70,South,189,0.0,0.0,79,0.00,,OVC024,0.00,VWS V14.01,2013-01-13 00:00:00,
2013-01-12 18:05:00,73.5,66.6,29.71,South,189,0.0,0.0,79,0.00,,OVC024,0.00,VWS V14.01,2013-01-13 00:05:00,
2013-01-12 18:10:00,73.3,66.8,29.71,South,189,0.0,0.0,80,0.00,,OVC024,0.00,VWS V14.01,2013-01-13 00:10:00,
2013-01-12 18:15:00,73.3,66.8,29.71,South,189,0.0,0.0,80,0.00,,OVC024,0.00,VWS V14.01,2013-01-13 00:15:00,
2013-01-12 18:20:00,73.2,66.7,29.72,South,189,0.0,0.0,80,0.00,,OVC024,0.00,VWS V14.01,2013-01-13 00:20:00,
2013-01-12 18:25:00,73.0,66.8,29.72,South,189,0.0,0.0,81,0.00,,OVC024,0.00,VWS V14.01,2013-01-13 00:25:00,
2013-01-12 18:30:00,73.0,66.8,29.72,South,189,0.0,0.0,81,0.00,,OVC024,0.00,VWS V14.01,2013-01-13 00:30:00,
2013-01-12 18:35:00,72.8,66.6,29.72,South,189,0.0,0.0,81,0.00,,OVC024,0.00,VWS V14.01,2013-01-13 00:35:00,
2013-01-12 18:40:00,72.8,66.6,29.72,South,189,0.0,0.0,81,0.00,,OVC024,0.00,VWS V14.01,2013-01-13 00:40:00,
2013-01-12 18:45:00,72.8,66.6,29.72,South,189,0.0,0.0,81,0.00,,OVC024,0.00,VWS V14.01,2013-01-13 00:45:00,
2013-01-12 18:50:00,72.7,66.9,29.72,South,189,0.0,0.0,82,0.00,,OVC024,0.00,VWS V14.01,2013-01-13 00:50:00,
2013-01-12 18:55:00,72.5,66.7,29.72,South,189,0.0,0.0,82,0.00,,OVC024,0.00,VWS V14.01,2013-01-13 00:55:00,
2013-01-12 19:00:00,72.5,66.7,29.72,South,189,0.0,0.0,82,0.00,,OVC036,0.00,VWS V14.01,2013-01-13 01:00:00,
2013-01-12 19:05:00,72.5,66.7,29.73,South,189,0.0,0.0,82,0.00,,OVC036,0.00,VWS V14.01,2013-01-13 01:05:00,
2013-01-12 19:10:00,72.5,66.7,29.73,South,189,0.0,0.0,82,0.00,,OVC036,0.00,VWS V14.01,2013-01-13 01:10:00,
2013-01-12 19:15:00,72.5,66.7,29.73,South,189,0.0,0.0,82,0.00,,BKN042,0.00,VWS V14.01,2013-01-13 01:15:00,
2013-01-12 19:20:00,72.5,66.7,29.72,South,189,0.0,0.0,82,0.00,,BKN042,0.00,VWS V14.01,2013-01-13 01:20:00,
2013-01-12 19:24:00,72.3,66.5,29.72,South,189,0.0,0.0,82,0.00,,BKN042,0.00,VWS V14.01,2013-01-13 01:24:00,
2013-01-12 19:29:00,72.1,66.3,29.72,South,189,0.0,0.0,82,0.00,,BKN042,0.00,VWS V14.01,2013-01-13 01:29:00,
2013-01-12 19:34:00,72.1,66.7,29.73,South,189,0.0,0.0,83,0.00,,BKN042,0.00,VWS V14.01,2013-01-13 01:34:00,
2013-01-12 19:39:00,72.0,66.6,29.73,South,189,0.0,0.0,83,0.00,,BKN042,0.00,VWS V14.01,2013-01-13 01:39:00,
2013-01-12 19:45:00,72.0,66.9,29.73,SSW,192,0.0,0.0,84,0.00,,BKN042,0.00,VWS V14.01,2013-01-13 01:45:00,
2013-01-12 19:50:00,72.0,66.9,29.74,SSW,212,1.0,4.0,84,0.00,,OVC033,0.00,VWS V14.01,2013-01-13 01:50:00,
2013-01-12 19:55:00,71.8,67.1,29.74,SW,216,0.0,2.0,85,0.00,,OVC033,0.00,VWS V14.01,2013-01-13 01:55:00,
2013-01-12 20:00:00,71.8,67.1,29.74,SW,219,0.0,2.0,85,0.00,,OVC025,0.00,VWS V14.01,2013-01-13 02:00:00,
2013-01-12 20:05:00,71.6,66.9,29.74,SW,219,0.0,0.0,85,0.00,,OVC025,0.00,VWS V14.01,2013-01-13 02:05:00,
2013-01-12 20:10:00,71.6,66.9,29.74,North,5,4.0,5.0,85,0.00,,OVC025,0.00,VWS V14.01,2013-01-13 02:10:00,
2013-01-12 20:15:00,71.6,66.5,29.74,NNW,332,5.0,5.0,84,0.00,,OVC025,0.00,VWS V14.01,2013-01-13 02:15:00,
2013-01-12 20:20:00,71.6,66.2,29.74,NW,320,5.0,9.0,83,0.00,,OVC025,0.00,VWS V14.01,2013-01-13 02:20:00,
2013-01-12 20:25:00,71.6,66.2,29.74,NNW,342,7.0,8.0,83,0.00,,OVC025,0.00,VWS V14.01,2013-01-13 02:25:00,
2013-01-12 20:30:00,67.6,54.1,29.74,North,5,12.0,25.0,62,0.00,,OVC025,0.00,VWS V14.01,2013-01-13 02:30:00,
2013-01-12 20:35:00,66.0,52.6,29.76,NW,325,7.0,16.0,62,0.00,,OVC025,0.00,VWS V14.01,2013-01-13 02:35:00,
2013-01-12 20:40:00,65.2,51.9,29.76,North,355,7.0,16.0,62,0.00,,OVC025,0.00,VWS V14.01,2013-01-13 02:40:00,
2013-01-12 20:45:00,64.7,50.5,29.76,NNW,340,8.0,13.0,60,0.00,,OVC025,0.00,VWS V14.01,2013-01-13 02:45:00,
2013-01-12 20:50:00,64.0,48.0,29.78,WNW,297,6.0,16.0,56,0.00,,OVC025,0.00,VWS V14.01,2013-01-13 02:50:00,
2013-01-12 20:55:00,63.5,48.0,29.78,North,355,13.0,16.0,57,0.00,,OVC025,0.00,VWS V14.01,2013-01-13 02:55:00,
2013-01-12 21:00:00,63.1,49.0,29.78,NW,321,5.0,16.0,60,0.00,,OVC025,0.00,VWS V14.01,2013-01-13 03:00:00,
2013-01-12 21:05:00,62.3,47.3,29.79,NW,311,10.0,14.0,58,0.00,,OVC050,0.00,VWS V14.01,2013-01-13 03:05:00,
2013-01-12 21:09:00,61.8,46.4,29.79,NW,325,8.0,18.0,57,0.00,,OVC050,0.00,VWS V14.01,2013-01-13 03:09:00,
2013-01-12 21:14:00,61.5,46.6,29.79,NW,310,4.0,12.0,58,0.00,,OVC050,0.00,VWS V14.01,2013-01-13 03:14:00,
2013-01-12 21:19:00,61.3,46.0,29.80,NW,315,15.0,15.0,57,0.00,,OVC050,0.00,VWS V14.01,2013-01-13 03:19:00,
2013-01-12 21:24:00,61.0,45.7,29.80,NNW,340,11.0,14.0,57,0.00,,OVC050,0.00,VWS V14.01,2013-01-13 03:24:00,
2013-01-12 21:29:00,60.5,44.7,29.80,NNW,347,11.0,15.0,56,0.00,,OVC050,0.00,VWS V14.01,2013-01-13 03:29:00,
2013-01-12 21:34:00,60.2,44.9,29.81,NNW,330,11.0,11.0,57,0.00,,OVC050,0.00,VWS V14.01,2013-01-13 03:34:00,
2013-01-12 21:39:00,59.9,44.7,29.81,NNW,327,12.0,14.0,57,0.00,,OVC050,0.00,VWS V14.01,2013-01-13 03:39:00,
2013-01-12 21:44:00,59.6,43.9,29.81,NNW,341,5.0,14.0,56,0.00,,OVC050,0.00,VWS V14.01,2013-01-13 03:44:00,
2013-01-12 21:49:00,59.3,43.6,29.82,NNW,344,10.0,15.0,56,0.00,,OVC050,0.00,VWS V14.01,2013-01-13 03:49:00,
2013-01-12 21:54:00,59.2,43.5,29.82,NNW,338,6.0,11.0,56,0.00,,OVC050,0.00,VWS V14.01,2013-01-13 03:54:00,
2013-01-12 21:59:00,58.9,43.2,29.82,NNW,342,16.0,17.0,56,0.00,,OVC027,0.00,VWS V14.01,2013-01-13 03:59:00,
2013-01-12 22:04:00,58.6,43.4,29.81,NNW,327,14.0,15.0,57,0.00,,OVC027,0.00,VWS V14.01,2013-01-13 04:04:00,
2013-01-12 22:09:00,58.3,43.2,29.81,NW,319,11.0,21.0,57,0.00,,OVC027,0.00,VWS V14.01,2013-01-13 04:09:00,
2013-01-12 22:14:00,58.3,43.6,29.81,NNE,26,2.0,9.0,58,0.00,,OVC027,0.00,VWS V14.01,2013-01-13 04:14:00,
2013-01-12 22:19:00,58.1,43.4,29.82,North,355,13.0,13.0,58,0.00,,OVC027,0.00,VWS V14.01,2013-01-13 04:19:00,
2013-01-12 22:24:00,57.6,43.0,29.82,NNE,19,13.0,13.0,58,0.00,,OVC027,0.00,VWS V14.01,2013-01-13 04:24:00,
2013-01-12 22:29:00,57.3,42.7,29.82,NNW,346,7.0,17.0,58,0.00,,OVC027,0.00,VWS V14.01,2013-01-13 04:29:00,
2013-01-12 22:34:00,57.2,43.0,29.83,NNW,347,7.0,12.0,59,0.00,,OVC027,0.00,VWS V14.01,2013-01-13 04:34:00,
2013-01-12 22:39:00,56.9,43.2,29.83,NW,323,13.0,15.0,60,0.00,,OVC027,0.00,VWS V14.01,2013-01-13 04:39:00,
2013-01-12 22:44:00,56.6,42.9,29.83,NNW,348,11.0,15.0,60,0.00,,OVC027,0.00,VWS V14.01,2013-01-13 04:44:00,
2013-01-12 22:49:00,56.2,42.5,29.83,NNW,346,13.0,18.0,60,0.00,,OVC027,0.00,VWS V14.01,2013-01-13 04:49:00,
2013-01-12 22:54:00,55.9,42.7,29.83,NNW,348,15.0,16.0,61,0.00,,OVC027,0.00,VWS V14.01,2013-01-13 04:54:00,
2013-01-12 22:59:00,55.7,42.5,29.83,NW,324,10.0,16.0,61,0.00,,OVC027,0.00,VWS V14.01,2013-01-13 04:59:00,
2013-01-12 23:00:00,55.7,42.5,29.83,NNE,16,10.0,16.0,61,0.00,,OVC027,0.00,VWS V14.01,2013-01-13 05:00:00,
2013-01-12 23:01:00,55.7,42.5,29.83,NNW,332,8.0,16.0,61,0.00,,OVC027,0.00,VWS V14.01,2013-01-13 05:01:00,
2013-01-12 23:03:00,55.6,42.4,29.85,North,349,5.0,6.0,61,0.00,,OVC027,0.00,VWS V14.01,2013-01-13 05:03:00,
2013-01-12 23:08:00,55.3,42.1,29.85,NW,315,9.0,17.0,61,0.00,,OVC027,0.00,VWS V14.01,2013-01-13 05:08:00,
2013-01-12 23:13:00,54.8,42.0,29.85,North,355,19.0,19.0,62,0.00,,OVC027,0.00,VWS V14.01,2013-01-13 05:13:00,
2013-01-12 23:18:00,54.7,42.0,29.84,NNW,344,13.0,19.0,62,0.00,,OVC027,0.00,VWS V14.01,2013-01-13 05:18:00,
2013-01-12 23:23:00,54.5,41.8,29.84,North,355,9.0,13.0,62,0.00,,OVC027,0.00,VWS V14.01,2013-01-13 05:23:00,
2013-01-12 23:28:00,54.4,41.7,29.84,NNW,331,7.0,18.0,62,0.00,,OVC027,0.00,VWS V14.01,2013-01-13 05:28:00,
2013-01-12 23:33:00,54.2,41.9,29.86,North,5,14.0,14.0,63,0.00,,OVC027,0.00,VWS V14.01,2013-01-13 05:33:00,
2013-01-12 23:38:00,54.1,41.4,29.86,North,355,12.0,21.0,62,0.00,,OVC027,0.00,VWS V14.01,2013-01-13 05:38:00,
2013-01-12 23:43:00,53.9,41.6,29.86,NNW,346,6.0,7.0,63,0.00,,OVC027,0.00,VWS V14.01,2013-01-13 05:43:00,
2013-01-12 23:48:00,53.5,41.2,29.87,North,355,6.0,22.0,63,0.00,,OVC027,0.00,VWS V14.01,2013-01-13 05:48:00,
2013-01-12 23:53:00,53.3,41.0,29.87,NW,306,13.0,13.0,63,0.00,,OVC027,0.00,VWS V14.01,2013-01-13 05:53:00,
2013-01-12 23:58:00,53.1,40.4,29.87,North,355,9.0,17.0,62,0.00,,OVC029,0.00,VWS V14.01,2013-01-13 05:58:00,